Weather History for Lexington, KY

Change the Weather History Date:

Thursday, January 19, 2012

  Actual Average Record
Temperature  
Mean Temperature 31 °F 33 °F  
Max Temperature 40 °F 41 °F 68 °F (1907)
Min Temperature 21 °F 25 °F -20 °F (1994)
Degree Days  
Heating Degree Days 34 32  
Month to date heating degree days 564 608  
Since 1 July heating degree days 2161 2396  
Cooling Degree Days 0 0  
Month to date cooling degree days 0 0  
Year to date cooling degree days 0 0  
Moisture  
Dew Point 22 °F    
Average Humidity 71    
Maximum Humidity 88    
Minimum Humidity 54    
Precipitation  
Precipitation 0.00 in 0.10 in 1.60 in (1988)
Month to date precipitation 2.20 1.95  
Year to date precipitation 2.20 1.95  
Snow  
Snow 0.00 in 0.10 in 8.90 in (1936)
Month to date snowfall 1.1 2.2  
Since 1 July snowfall 1.1 5.0  
Snow Depth 0.00 in    
Sea Level Pressure  
Sea Level Pressure 30.04 in    
Wind  
Wind Speed 10 mph (SSW)    
Max Wind Speed 18 mph    
Max Gust Speed 24 mph    
Visibility 10 miles    
Events      
T = Trace of Precipitation, MM = Missing Value Source: NWS Daily Summary

Daily Weather History Graph

Daily Weather History Graph

Search for Another Location

Airport:

Trip Planner

Search our weather history database for the weather conditions in past years. The results will help you decide how hot, cold, wet, or windy it might be!

Date:

Astronomy

Jan. 19, 2012 Rise Set
Actual Time 7:51 AM EST 5:46 PM EST
Civil Twilight 7:23 AM EST 6:15 PM EST
Nautical Twilight 6:51 AM EST 6:47 PM EST
Astronomical Twilight 6:19 AM EST 7:18 PM EST
Moon 4:26 AM EST (1/19) 2:18 PM EST (1/19)
Length of Visible Light 10h 51m
Length of Day
9h 54m
Waning Crescent, 16% of the Moon is Illuminated
Jan 19
Waning Crescent
Jan 23
New
Jan 30
First Quarter
Feb 7
Full
Feb 14
Last Quarter

Hourly Weather History & Observations

Time (EST) Temp. Windchill Dew Point Humidity Pressure Visibility Wind Dir Wind Speed Gust Speed Precip Events Conditions
12:54 AM 24.1 °F 15.2 °F 18.0 °F 77% 30.12 in 10.0 mi South 8.1 mph - N/A   Scattered Clouds
1:54 AM 23.0 °F 13.9 °F 17.1 °F 78% 30.10 in 10.0 mi South 8.1 mph - N/A   Clear
2:54 AM 21.9 °F 13.4 °F 17.1 °F 82% 30.10 in 10.0 mi South 6.9 mph - N/A   Clear
3:54 AM 21.9 °F 11.7 °F 17.1 °F 82% 30.08 in 10.0 mi South 9.2 mph - N/A   Clear
4:54 AM 21.9 °F 12.5 °F 17.1 °F 82% 30.08 in 10.0 mi South 8.1 mph - N/A   Clear
5:54 AM 21.9 °F 11.7 °F 18.0 °F 85% 30.03 in 10.0 mi South 9.2 mph - N/A   Clear
6:54 AM 24.1 °F 15.2 °F 19.0 °F 81% 30.04 in 10.0 mi South 8.1 mph - N/A   Clear
7:54 AM 23.0 °F 13.9 °F 18.0 °F 81% 30.04 in 10.0 mi South 8.1 mph - N/A   Clear
8:54 AM 25.0 °F 15.5 °F 21.0 °F 85% 30.05 in 10.0 mi South 9.2 mph - N/A   Clear
9:54 AM 28.9 °F 18.6 °F 23.0 °F 78% 30.06 in 10.0 mi SSW 12.7 mph 19.6 mph N/A   Clear
10:54 AM 33.1 °F 23.4 °F 24.1 °F 70% 30.07 in 10.0 mi SSW 13.8 mph 21.9 mph N/A   Mostly Cloudy
11:54 AM 35.1 °F 25.9 °F 24.1 °F 64% 30.04 in 10.0 mi SW 13.8 mph - N/A   Overcast
12:54 PM 37.4 °F 28.5 °F 24.8 °F 60% 29.97 in 10.0 mi SSW 15.0 mph - N/A   Clear
1:54 PM 39.0 °F 29.6 °F 25.0 °F 57% 29.97 in 10.0 mi SSW 18.4 mph 24.2 mph N/A   Mostly Cloudy
2:54 PM 39.9 °F 31.1 °F 25.0 °F 55% 29.94 in 10.0 mi SW 17.3 mph - N/A   Clear
3:54 PM 39.0 °F 32.8 °F 26.1 °F 60% 29.99 in 10.0 mi West 9.2 mph - N/A   Mostly Cloudy
4:54 PM 39.0 °F 33.4 °F 26.1 °F 60% 29.97 in 10.0 mi SW 8.1 mph - N/A   Scattered Clouds
5:54 PM 37.0 °F 31.6 °F 26.1 °F 65% 29.98 in 10.0 mi SW 6.9 mph - N/A   Clear
6:54 PM 35.1 °F 31.0 °F 26.1 °F 70% 30.01 in 10.0 mi WSW 4.6 mph - N/A   Clear
7:54 PM 34.0 °F 28.8 °F 25.0 °F 70% 30.04 in 10.0 mi WSW 5.8 mph - N/A   Clear
8:54 PM 33.8 °F 30.8 °F 24.8 °F 70% 30.02 in 10.0 mi West 3.5 mph - N/A   Clear
9:54 PM 28.9 °F 19.8 °F 24.1 °F 82% 30.08 in 10.0 mi NNW 10.4 mph - N/A   Clear
10:54 PM 28.9 °F 21.1 °F 25.0 °F 85% 30.09 in 10.0 mi North 8.1 mph - N/A   Clear
11:54 PM 28.9 °F 21.9 °F 25.0 °F 85% 30.10 in 10.0 mi NNE 6.9 mph - N/A   Mostly Cloudy